Watford City, ND

5:27 AM CDT on May 24, 2017 (GMT -0500)
Watford City

Weather History for KS25 - July, 2013

Change the Weather History Date:

Sunday, July 14, 2013

  Actual Average (KISN) Record (KISN)
Temperature  
Mean Temperature 60 °F -  
Max Temperature 68 °F 85 °F 107 °F (1983)
Min Temperature 51 °F 56 °F 43 °F (1993)
Degree Days  
Heating Degree Days 6    
Growing Degree Days 10 (Base 50)    
Moisture  
Dew Point 55 °F    
Average Humidity 83    
Maximum Humidity 100    
Minimum Humidity 60    
Precipitation  
Precipitation 0.00 in - - ()
Sea Level Pressure  
Sea Level Pressure 30.22 in    
Wind  
Wind Speed 8 mph (NE)    
Max Wind Speed 14 mph    
Max Gust Speed 18 mph    
Visibility 10 miles    
Events      
Averages and records for this station are not official NWS values.
T = Trace of Precipitation, MM = Missing Value Source: NWS Daily Summary

Daily Weather History Graph

Daily Weather History Graph

Search for Another Location

Airport or City:

Trip Planner

Search our weather history database for the weather conditions in past years. The results will help you decide how hot, cold, wet, or windy it might be!

Date:

Astronomy

Jul. 14, 2013 Rise Set
Actual Time 6:09 AM CDT 9:48 PM CDT
Civil Twilight 5:30 AM CDT 10:26 PM CDT
Nautical Twilight 4:37 AM CDT 11:19 PM CDT
Astronomical Twilight 3:23 AM CDT 12:31 AM CDT
Moon 1:01 PM CDT (7/14) 12:00 AM CDT (7/14)
Length of Visible Light 16h 56m
Length of Day
15h 38m
Waxing Crescent, 35% of the Moon is Illuminated
Jul 14
Waxing Crescent
Jul 15
First Quarter
Jul 22
Full
Jul 29
Last Quarter
Aug 6
New

Hourly Weather History & Observations

Time (CDT) Temp. Dew Point Humidity Pressure Visibility Wind Dir Wind Speed Gust Speed Precip Events Conditions
12:15 AM 57.2 °F 55.4 °F 94% 30.14 in 10.0 mi WNW 10.4 mph - N/A   Overcast
12:35 AM 57.2 °F 55.4 °F 94% 30.15 in 10.0 mi NW 9.2 mph 17.3 mph N/A   Overcast
12:55 AM 57.2 °F 55.4 °F 94% 30.16 in 10.0 mi NNW 11.5 mph 18.4 mph N/A   Overcast
1:15 AM 57.2 °F 55.4 °F 94% 30.17 in 10.0 mi NNW 9.2 mph 17.3 mph N/A   Overcast
1:35 AM 57.2 °F 55.4 °F 94% 30.18 in 10.0 mi NNW 12.7 mph - N/A   Overcast
1:55 AM 57.2 °F 53.6 °F 88% 30.17 in 10.0 mi North 9.2 mph - N/A   Overcast
2:15 AM 57.2 °F 53.6 °F 88% 30.16 in 10.0 mi North 9.2 mph - N/A   Overcast
2:35 AM 55.4 °F 53.6 °F 94% 30.15 in 10.0 mi North 13.8 mph - N/A   Overcast
2:55 AM 53.6 °F 53.6 °F 100% 30.15 in 10.0 mi North 9.2 mph - N/A   Partly Cloudy
3:15 AM 53.6 °F 53.6 °F 100% 30.16 in 10.0 mi North 8.1 mph - N/A   Clear
3:35 AM 53.6 °F 53.6 °F 100% 30.16 in 10.0 mi North 4.6 mph - N/A   Clear
3:55 AM 51.8 °F 51.8 °F 100% 30.16 in 10.0 mi Calm Calm - N/A   Clear
4:15 AM 51.8 °F 51.8 °F 100% 30.17 in 10.0 mi Calm Calm - N/A   Clear
4:35 AM 53.6 °F 53.6 °F 100% 30.18 in 10.0 mi Calm Calm - N/A   Clear
4:55 AM 53.6 °F 53.6 °F 100% 30.18 in 10.0 mi North 6.9 mph - N/A   Clear
5:15 AM 53.6 °F 53.6 °F 100% 30.19 in 10.0 mi NNE 6.9 mph - N/A   Clear
5:35 AM 53.6 °F 53.6 °F 100% 30.22 in 10.0 mi Calm Calm - N/A   Clear
5:55 AM 53.6 °F 53.6 °F 100% 30.23 in 10.0 mi NW 3.5 mph - N/A   Clear
6:15 AM 53.6 °F 53.6 °F 100% 30.22 in 10.0 mi North 4.6 mph - N/A   Clear
6:35 AM 53.6 °F 53.6 °F 100% 30.20 in 10.0 mi NNE 6.9 mph - N/A   Partly Cloudy
6:55 AM 53.6 °F 53.6 °F 100% 30.24 in 10.0 mi NNW 3.5 mph - N/A   Scattered Clouds
7:15 AM 53.6 °F 53.6 °F 100% 30.24 in 10.0 mi North 6.9 mph - N/A   Scattered Clouds
7:35 AM 53.6 °F 53.6 °F 100% 30.25 in 10.0 mi North 6.9 mph - N/A   Mostly Cloudy
7:55 AM 55.4 °F 53.6 °F 94% 30.24 in 10.0 mi North 9.2 mph - N/A   Mostly Cloudy
8:15 AM 55.4 °F 53.6 °F 94% 30.25 in 10.0 mi NNE 8.1 mph - N/A   Overcast
8:35 AM 55.4 °F 53.6 °F 94% 30.27 in 10.0 mi North 5.8 mph - N/A   Overcast
8:55 AM 55.4 °F 53.6 °F 94% 30.25 in 10.0 mi North 10.4 mph - N/A   Overcast
9:15 AM 55.4 °F 53.6 °F 94% 30.24 in 10.0 mi North 12.7 mph - N/A   Overcast
9:35 AM 55.4 °F 53.6 °F 94% 30.25 in 10.0 mi NNE 10.4 mph - N/A   Overcast
9:55 AM 57.2 °F 53.6 °F 88% 30.26 in 10.0 mi NNE 12.7 mph - N/A   Overcast
10:15 AM 59.0 °F 53.6 °F 82% 30.26 in 10.0 mi North 11.5 mph - N/A   Overcast
10:35 AM 59.0 °F 53.6 °F 82% 30.26 in 10.0 mi NNE 6.9 mph - N/A   Overcast
10:55 AM 62.6 °F 55.4 °F 77% 30.27 in 10.0 mi NNE 6.9 mph - N/A   Mostly Cloudy
11:15 AM 62.6 °F 55.4 °F 77% 30.27 in 10.0 mi NE 9.2 mph - N/A   Scattered Clouds
11:35 AM 62.6 °F 55.4 °F 77% 30.27 in 10.0 mi ENE 6.9 mph - N/A   Mostly Cloudy
11:55 AM 62.6 °F 55.4 °F 77% 30.26 in 10.0 mi NNE 8.1 mph - N/A   Mostly Cloudy
12:15 PM 62.6 °F 55.4 °F 77% 30.26 in 10.0 mi ENE 9.2 mph - N/A   Mostly Cloudy
12:35 PM 64.4 °F 55.4 °F 73% 30.27 in 10.0 mi East 9.2 mph - N/A   Scattered Clouds
12:55 PM 64.4 °F 55.4 °F 73% 30.26 in 10.0 mi NNE 8.1 mph - N/A   Mostly Cloudy
1:15 PM 64.4 °F 55.4 °F 73% 30.27 in 10.0 mi NE 6.9 mph - N/A   Scattered Clouds
1:35 PM 66.2 °F 55.4 °F 68% 30.26 in 10.0 mi East 5.8 mph - N/A   Scattered Clouds
1:55 PM 66.2 °F 55.4 °F 68% 30.26 in 10.0 mi NNE 5.8 mph - N/A   Mostly Cloudy
2:15 PM 66.2 °F 53.6 °F 64% 30.27 in 10.0 mi ENE 5.8 mph - N/A   Mostly Cloudy
2:35 PM 66.2 °F 55.4 °F 68% 30.26 in 10.0 mi ESE 5.8 mph - N/A   Mostly Cloudy
2:55 PM 66.2 °F 55.4 °F 68% 30.26 in 10.0 mi ESE 5.8 mph - N/A   Scattered Clouds
3:15 PM 66.2 °F 55.4 °F 68% 30.26 in 10.0 mi SE 6.9 mph - N/A   Scattered Clouds
3:35 PM 68.0 °F 55.4 °F 64% 30.26 in 10.0 mi ESE 5.8 mph - N/A   Mostly Cloudy
3:55 PM 66.2 °F 55.4 °F 68% 30.25 in 10.0 mi SE 6.9 mph - N/A   Scattered Clouds
4:15 PM 66.2 °F 53.6 °F 64% 30.24 in 10.0 mi ESE 4.6 mph - N/A   Scattered Clouds
4:35 PM 68.0 °F 53.6 °F 60% 30.24 in 10.0 mi SE 6.9 mph - N/A   Partly Cloudy
4:55 PM 68.0 °F 55.4 °F 64% 30.24 in 10.0 mi ESE 4.6 mph - N/A   Partly Cloudy
5:15 PM 66.2 °F 55.4 °F 68% 30.23 in 10.0 mi SE 5.8 mph - N/A   Partly Cloudy
5:35 PM 66.2 °F 55.4 °F 68% 30.22 in 10.0 mi East 4.6 mph - N/A   Scattered Clouds
5:55 PM 68.0 °F 55.4 °F 64% 30.20 in 10.0 mi East 8.1 mph - N/A   Partly Cloudy
6:15 PM 68.0 °F 55.4 °F 64% 30.19 in 10.0 mi ENE 8.1 mph - N/A   Mostly Cloudy
6:35 PM 68.0 °F 55.4 °F 64% 30.19 in 10.0 mi ENE 6.9 mph - N/A   Scattered Clouds
6:55 PM 66.2 °F 55.4 °F 68% 30.19 in 10.0 mi ENE 4.6 mph - N/A   Partly Cloudy
7:15 PM 66.2 °F 55.4 °F 68% 30.19 in 10.0 mi East 6.9 mph - N/A   Scattered Clouds
7:35 PM 66.2 °F 55.4 °F 68% 30.19 in 10.0 mi East 8.1 mph - N/A   Mostly Cloudy
7:55 PM 66.2 °F 55.4 °F 68% 30.20 in 10.0 mi ESE 9.2 mph - N/A   Mostly Cloudy
8:15 PM 66.2 °F 57.2 °F 73% 30.20 in 10.0 mi ESE 10.4 mph - N/A   Mostly Cloudy
8:35 PM 64.4 °F 55.4 °F 73% 30.19 in 10.0 mi ESE 10.4 mph - N/A   Mostly Cloudy
8:55 PM 64.4 °F 55.4 °F 73% 30.19 in 10.0 mi ESE 9.2 mph - N/A   Scattered Clouds
9:15 PM 64.4 °F 55.4 °F 73% 30.18 in 10.0 mi ESE 10.4 mph - N/A   Scattered Clouds
9:35 PM 64.4 °F 57.2 °F 77% 30.19 in 10.0 mi SE 6.9 mph - N/A   Scattered Clouds
9:55 PM 62.6 °F 57.2 °F 82% 30.18 in 10.0 mi SE 8.1 mph - N/A   Scattered Clouds
10:15 PM 60.8 °F 57.2 °F 88% 30.19 in 10.0 mi SE 4.6 mph - N/A   Mostly Cloudy
10:35 PM 59.0 °F 57.2 °F 94% 30.19 in 10.0 mi SE 3.5 mph - N/A   Overcast
10:55 PM 59.0 °F 57.2 °F 94% 30.19 in 10.0 mi Calm Calm - N/A   Mostly Cloudy
11:15 PM 59.0 °F 57.2 °F 94% 30.19 in 10.0 mi Calm Calm - N/A   Scattered Clouds
11:35 PM 57.2 °F 57.2 °F 100% 30.19 in 10.0 mi ESE 4.6 mph - N/A   Partly Cloudy
11:55 PM 57.2 °F 55.4 °F 94% 30.19 in 10.0 mi SE 3.5 mph - N/A   Clear